Orbital Elements at Epoch 2459000.5 (2020-May-31.0) TDB
Reference: JPL 14 (heliocentric ecliptic J2000)
Element | Value | Uncertainty (1-sigma) | Units |
e | .0338431938741243 | 5.1023e-08 | |
a | 1.886671149359141 | 1.1287e-08 | au |
q | 1.822820171874662 | 9.1767e-08 | au |
i | 19.84803793555716 | 9.4565e-06 | deg |
node | 311.2629721093294 | 1.6121e-05 | deg |
peri | 278.6566142706534 | 0.00017274 | deg |
M | 124.9116721918243 | 0.00017426 | deg |
tp | 2458672.069666797507 (2019-Jul-07.56966680) | 0.00045851 | TDB |
period | 946.5482118542652 2.59 | 8.4938e-06 2.325e-08 | d yr |
n | .380329280105837 | 3.4129e-09 | deg/d |
Q | 1.950522126843619 | 1.1669e-08 | au |
|
| | Orbit Determination Parameters
Additional Information
|